Location: Passau
(48.5830°N, 13.4830°E)
Time: 21:32:28
(UTC+02:00)

Vanguard 3 - Pass Details

Date: 25 May 2024
Orbit: 509 x 3231 km, 33.3° (Epoch: 16 June)

Event Time Altitude Azimuth Distance (km) Brightness Sun altitude
Rises 21:46:07 0° 254° (WSW) 4,468 11.4 -7.6°
Reaches altitude 10° 21:48:53 10° 246° (WSW) 3,810 10.9 -7.9°
Maximum altitude 21:58:26 39° 183° (S) 3,062 9.7 -9.0°
Drops below altitude 10° 22:13:10 10° 124° (SE) 5,832 10.9 -10.6°
Enters shadow 22:13:34 - 123° (ESE) 5,922 10.9 -10.7°
Sets 22:18:41 0° 118° (ESE) 7,065 - -11.2°
